Zurück zum Katalog

FENGYUN 1C DEB

AktivPO
NORAD 32129·DEBRIS·🇨🇳 China

Gestartet May 10, 1999 von Taiyuan Satellite Launch Center

Loading…

Nächste Überflüge (nächste 24 Stunden)

TLE

AktuellSource: Space-Track

Epoche: Sep 13, 2026, 07:39 UTC

1 32129U 99025CRX 26256.31879208  .00003243  00000-0  12062-2 0  9996
2 32129  99.0733  31.1616 0064296 317.5247  72.2397 14.31683649981524

Verfolge FENGYUN 1C DEB in Echtzeit mit AllMySat

Download on the App Store